CHUANG XIN 1 (CZ-1)

Satellite information

Favourite Embed

Satellite Type and Status

PAYLOADIN ORBIT

Key statistics

Satellite CHUANG XIN 1 (CZ-1) at a glance.

Uptime

8089

Days in orbit

Revolutions

≈ 14.5

Per day

Orbit

SSO

Sun Synchronous Orbit

Inclination

98.5

Latest

Satellite identification and parameters

Extended collection of information and parameters for CHUANG XIN 1 (CZ-1).

Object identification

Identified? True

Debris? False

Object name: CHUANG XIN 1 (CZ-1)

International designator: 2003-049B

Object number (NORAD): 28058

Object ID (CCSDS): 28058

Country: PEOPLES REPUBLIC OF CHINA (PRC)

Current information (Y/N): Y

RCS size: MEDIUM

Orbital parameters

Period: 99.416 minutes

Inclination: 98.5253 deg

SMA: 7108.839 km

Apoapsis: 740.094 km

Periapsis: 721.314 km

RAAN: 238.7008 deg

Eccentricy: 0.0013209

Argument of periapsis: 34.6998 deg

Mean anomaly: 325.5054 deg

Mean motion: 14.48454247 rev/day

Mean motion (dot): 0.00000503 rev/day2

B* drag term: 0.00014632491 1/REarth

Two-line elements (TLE)

Creation date: Dec. 12, 2025, 10:14 a.m.

Reference frame: TEME

Reference center: EARTH

Epoch: Dec. 12, 2025, 4:28 a.m. UTC

TLE line 0: 0 CHUANG XIN 1 (CZ-1)

TLE line 1: 1 28058U 03049B 25346.18672604 .00000503 00000-0 14632-3 0 9990

TLE line 2: 2 28058 98.5253 238.7008 0013209 34.6998 325.5054 14.48454247169204

Live tracking on map

Real-time ground track for satellite CHUANG XIN 1 (CZ-1).

In-orbit conjunctions

A list of the most updated potential collisions computed for object CHUANG XIN 1 (CZ-1).

Target Orbit TCA Probability of collision Miss distance Type
SL-8 DEB LEO 2025-11-15 14:41:52 0.0003200055 545.0 (m) DEBRIS
FENGYUN 1C DEB SSO 2025-06-29 20:37:37 0.0001073317 824.0 (m) DEBRIS
COSMOS 2251 DEB LEO 2025-06-06 18:45:15 0.0002515997 196.0 (m) DEBRIS
COSMOS 2251 DEB LEO 2025-05-10 18:28:10 0.0001236769 588.0 (m) DEBRIS
IRIDIUM 33 DEB LEO 2025-04-18 04:58:53 0.0005659935 160.0 (m) DEBRIS

Associated space launch

The satellite is China's first operational civilian remote-sensing satellite, specifically designed for the Chinese Ministry of Land and Resources (MLR).

CHUANG XIN 1 (CZ-1) was lifted into orbit during the mission ‘Long March 4B | Zi Yuan 1-2’, on board a Long March 4B space rocket.

The launch took place on Oct. 21, 2003, 3:16 a.m. from Launch Complex 7.

For more information about the launch, click the button.

Launch to space Long March 4B | Zi Yuan 1-2
Long March 4B | Zi Yuan 1-2

Agency: N/A

Status: Launch Successful

Launch date: Oct. 21, 2003, 3:16 a.m. UTC

Rocket: Long March 4B

Launch pad: Launch Complex 7

Location: Taiyuan Satellite Launch Center, People's Republic of China

...

Latest news about this satellite

There are no fresh news available about this satellite. Check back as we update our databases every day.


Newsletter sign-up

Weekly statistics, charts and insights to help you stay on top of the space industry.